Hourly Data Report for November 15, 2019

All times are specified in Local Standard Time (LST). Add 1 hour to adjust for Daylight Saving Time where and when it is observed.

SATURNA ISLAND CS
BRITISH COLUMBIA
Current Station Operator: ECCC - MSC

48°47'02.067" N
123°02'41.082" W
24.40 m
1017101
71473
WEZ

Download Data

Hourly Data (November 2019)
Hourly Data Report for November 15, 2019
TIME Temp Definition
°C
Dew Point Definition
°C
Rel Hum Definition
%
Wind Dir Definition
10's deg

Wind Spd Definition
km/h
Visibility Definition
km
Stn Press Definition
kPa
Hmdx Definition


Wind Chill Definition


Weather Definition


00:00 9.6 7.9 89 23 7   101.07     LegendNANA
01:00 9.3 8.4 94 15 15   101.02     LegendNANA
02:00 9.3 8.0 92 19 15   101.00     LegendNANA
03:00 9.0 7.7 92 24 18   100.99     LegendNANA
04:00 9.4 8.3 93 20 16   100.96     LegendNANA
05:00 9.6 8.9 96 21 25   100.98     LegendNANA
06:00 9.9 8.7 92 18 32   100.91     LegendNANA
07:00 9.9 8.8 93 19 35   100.94     LegendNANA
08:00 9.6 8.7 95 20 37   101.05     LegendNANA
09:00 9.9 8.7 92 19 33   101.07     LegendNANA
10:00 10.0 8.8 92 20 31   101.15     LegendNANA
11:00 10.5 9.3 92 21 40   101.22     LegendNANA
12:00 11.2 8.9 86 22 23   101.30     LegendNANA
13:00 12.0 9.3 84 23 18   101.34     LegendNANA
14:00 12.7 9.1 79 23 19   101.42     LegendNANA
15:00 10.9 9.2 89 21 16   101.51     LegendNANA
16:00 10.3 8.6 89 21 13   101.59     LegendNANA
17:00 11.3 7.8 79 24 10   101.66     LegendNANA
18:00 10.6 7.8 83 24 10   101.70     LegendNANA
19:00 10.1 7.9 86 23 9   101.79     LegendNANA
20:00 10.0 7.8 86 24 12   101.85     LegendNANA
21:00 10.1 7.8 86 23 19   101.92     LegendNANA
22:00 9.9 7.7 86 24 15   102.01     LegendNANA
23:00 9.1 7.8 92 21 13   102.05     LegendNANA

Notes on Data Quality.

Legend

  • E = Estimated
  • M = Missing
  • NA = Not Available
Date modified: